User: anonymous   Login
Location: Unspecified
(0.0000°N, 0.0000°E)
Time: 00:22:03
(UTC+00:00)
Language:

NODES 2 - Orbit

View from above orbital plane
View from above orbital plane
View from above satellite
View from above satellite

Ground track
Ground track

The orbit data is extracted from the following two-line orbital elements,

1 41478U 98067HY  17231.49516001  .00174287  22462-4  52222-3 0  9999
2 41478  51.6274  32.6837 0003870 305.7052  54.3594 15.91967754 72115
Epoch (UTC): 19 August 2017 11:53:01
Eccentricity: 0.0003870
inclination: 51.6274°
perigee height: 294 km
apogee height: 299 km
right ascension of ascending node: 32.6837°
argument of perigee: 305.7052°
revolutions per day: 15.91967754
mean anomaly at epoch: 54.3594°
orbit number at epoch: 7211

The dashed part of the orbit path shows where the satellite is in the earth's shadow,  

DLR